Waarnemingen

Advertentie
Mijn weer
Barcelona/Aeropuerto, Spanje (8181): temperatuur & dauwpunt: 11.02.2019 13:00:00 - 17.02.2019 13:00:00 (CET)Barcelona/Aeropuerto, Spanje (8181): windsnelheid: 11.02.2019 13:00:00 - 17.02.2019 13:00:00 (CET)Barcelona/Aeropuerto, Spanje (8181): windrichting: 11.02.2019 13:00:00 - 17.02.2019 13:00:00 (CET)Barcelona/Aeropuerto, Spanje (8181): luchtdruk: 11.02.2019 13:00:00 - 17.02.2019 13:00:00 (CET)Barcelona/Aeropuerto, Spanje (8181): zicht: 11.02.2019 13:00:00 - 17.02.2019 13:00:00 (CET)
Datum & Tijd tt [°C] td [°C] ff [km/u] ff [kn] dd ppp [hPa] vv [km]
17.02.2019 13:00:00 - - - - - - -
17.02.2019 12:00:00 13,6 5,2 8 4 N 1027,8 27
17.02.2019 11:00:00 10,9 -0,4 15 8 N 1028,2 23
17.02.2019 10:00:00 7,4 -1,3 18 10 N 1028,4 30
17.02.2019 09:00:00 4,8 -2,1 21 11 N 1028,5 30
17.02.2019 08:00:00 3,9 -2,3 22 12 N 1028,3 30
17.02.2019 07:00:00 4,1 -1,9 18 10 N 1028,1 27
17.02.2019 06:00:00 4,5 -1,5 18 10 N 1028,0 27
17.02.2019 05:00:00 4,6 -1,0 18 10 N 1028,0 25
17.02.2019 04:00:00 5,1 -0,3 16 9 N 1028,2 17
17.02.2019 03:00:00 5,6 0,2 16 9 N 1028,5 18
17.02.2019 02:00:00 6,1 1,1 16 9 N 1028,9 20
17.02.2019 01:00:00 6,2 2,5 13 7 N 1029,0 16
17.02.2019 00:00:00 6,6 3,0 13 7 N 1029,2 16
16.02.2019 23:00:00 6,9 3,3 15 8 N 1029,4 18
16.02.2019 22:00:00 7,3 4,6 11 6 N 1029,3 16
16.02.2019 21:00:00 9,0 7,3 8 4 N 1029,2 12
16.02.2019 20:00:00 10,9 9,0 2 1 O 1029,0 13
16.02.2019 19:00:00 12,0 9,6 0 0 N 1029,0 25
16.02.2019 18:00:00 13,5 9,8 8 4 Z 1028,8 23
16.02.2019 17:00:00 14,6 8,6 8 4 Z 1029,1 28
16.02.2019 16:00:00 14,8 7,1 8 4 Z 1029,4 25
16.02.2019 15:00:00 14,7 8,7 11 6 ZO 1029,8 30
16.02.2019 14:00:00 14,5 8,9 13 7 ZO 1030,4 20
16.02.2019 13:00:00 16,4 7,8 4 2 ZZO 1030,9 25
16.02.2019 12:00:00 14,6 0,3 8 4 ONO 1031,5 24
16.02.2019 11:00:00 11,5 -0,8 16 9 NNO 1031,4 30
16.02.2019 10:00:00 8,1 -0,6 18 10 N 1031,2 40
16.02.2019 09:00:00 5,3 -1,6 22 12 N 1031,1 30
16.02.2019 08:00:00 3,7 -1,7 22 12 N 1030,3 35
16.02.2019 07:00:00 4,2 -1,7 22 12 N 1029,9 30
16.02.2019 06:00:00 4,7 -1,3 21 11 N 1029,9 30
16.02.2019 05:00:00 4,9 -1,1 16 9 N 1029,5 30
16.02.2019 04:00:00 5,2 -0,6 15 8 N 1029,7 30
16.02.2019 03:00:00 5,7 -0,2 16 9 N 1029,7 30
16.02.2019 02:00:00 5,8 0,9 16 9 N 1029,9 25
16.02.2019 01:00:00 5,7 2,9 8 4 NNW 1030,1 17
16.02.2019 00:00:00 5,8 3,5 4 2 N 1030,1 15
15.02.2019 23:00:00 6,9 4,4 2 1 NNW 1030,0 16
15.02.2019 22:00:00 7,9 6,0 9 5 N 1029,9 16
15.02.2019 21:00:00 8,4 6,4 5 3 NW 1029,8 17
15.02.2019 20:00:00 - - - - - - -
15.02.2019 19:00:00 - - - - - - 30
15.02.2019 18:00:00 12,6 8,1 13 7 ZW 1029,4 30
15.02.2019 17:00:00 13,2 8,3 16 9 ZW 1029,3 30
15.02.2019 16:00:00 13,5 8,2 18 10 ZW 1029,6 30
15.02.2019 15:00:00 13,8 8,2 18 10 ZW 1029,9 30
15.02.2019 14:00:00 13,9 7,9 15 8 ZW 1030,6 30
15.02.2019 13:00:00 13,7 8,1 13 7 ZW 1031,3 30
15.02.2019 12:00:00 14,2 5,7 0 0 N 1032,1 23
15.02.2019 11:00:00 10,4 2,4 11 6 N 1032,2 15
15.02.2019 10:00:00 7,4 1,6 15 8 N 1032,3 19
15.02.2019 09:00:00 4,4 0,8 22 12 N 1032,2 21
15.02.2019 08:00:00 3,3 0,7 18 10 N 1031,9 17
15.02.2019 07:00:00 3,6 1,1 18 10 N 1031,5 17
15.02.2019 06:00:00 4,4 1,8 18 10 N 1031,7 17
15.02.2019 05:00:00 4,7 2,2 18 10 N 1031,4 18
15.02.2019 04:00:00 5,2 2,9 16 9 N 1031,6 15
15.02.2019 03:00:00 5,7 3,8 15 8 N 1031,8 15
15.02.2019 02:00:00 5,8 4,1 13 7 N 1031,9 13
15.02.2019 01:00:00 5,6 3,9 11 6 N 1032,4 11
15.02.2019 00:00:00 6,2 4,2 13 7 N 1032,6 15
14.02.2019 23:00:00 6,7 4,2 4 2 NNW 1032,7 19
14.02.2019 22:00:00 8,0 5,1 0 0 N 1032,6 18
14.02.2019 21:00:00 8,6 5,5 4 2 N 1032,5 21
14.02.2019 20:00:00 10,0 6,0 8 4 WZW 1032,6 27
14.02.2019 19:00:00 11,2 6,7 9 5 ZW 1032,7 30
14.02.2019 18:00:00 12,7 7,2 15 8 ZW 1032,6 30
14.02.2019 17:00:00 13,4 7,2 21 11 ZW 1032,9 30
14.02.2019 16:00:00 13,7 6,5 24 13 ZW 1033,2 30
14.02.2019 15:00:00 14,0 7,5 21 11 ZW 1033,6 30
14.02.2019 14:00:00 13,8 7,9 16 9 ZZW 1034,4 30
14.02.2019 13:00:00 13,8 8,0 13 7 ZW 1035,4 26
14.02.2019 12:00:00 13,2 6,9 2 1 ONO 1036,0 20
14.02.2019 11:00:00 9,5 4,4 16 9 N 1036,3 13
14.02.2019 10:00:00 6,7 3,3 22 12 N 1036,2 11
14.02.2019 09:00:00 4,7 2,6 22 12 N 1036,2 9
14.02.2019 08:00:00 3,9 2,3 22 12 N 1035,8 9
14.02.2019 07:00:00 4,4 2,7 22 12 N 1035,7 10
14.02.2019 06:00:00 4,9 3,1 22 12 N 1035,7 11
14.02.2019 05:00:00 5,4 3,6 21 11 N 1035,3 11
14.02.2019 04:00:00 5,6 3,9 18 10 N 1035,2 13
14.02.2019 03:00:00 6,2 4,5 16 9 N 1035,3 12
14.02.2019 02:00:00 6,7 5,2 15 8 N 1035,2 11
14.02.2019 01:00:00 6,7 5,2 16 9 N 1035,1 12
14.02.2019 00:00:00 6,7 5,3 13 7 N 1034,8 13
13.02.2019 23:00:00 7,4 5,7 9 5 N 1034,6 16
13.02.2019 22:00:00 8,3 6,1 11 6 N 1034,2 17
13.02.2019 21:00:00 9,1 6,9 4 2 N 1033,7 15
13.02.2019 20:00:00 10,2 7,8 5 3 NNW 1033,6 16
13.02.2019 19:00:00 11,5 8,6 5 3 W 1033,4 17
13.02.2019 18:00:00 13,3 9,0 9 5 ZW 1033,0 30
13.02.2019 17:00:00 13,8 8,8 15 8 ZW 1033,0 28
13.02.2019 16:00:00 14,4 7,7 11 6 ZW 1033,0 35
13.02.2019 15:00:00 14,7 7,3 8 4 ZZW 1032,9 30
13.02.2019 14:00:00 13,9 7,0 11 6 ZZO 1033,3 25
13.02.2019 13:00:00 14,1 7,0 11 6 OZO 1033,8 28
13.02.2019 12:00:00 13,4 6,5 11 6 O 1033,9 23
13.02.2019 11:00:00 11,9 3,3 9 5 N 1033,6 25
13.02.2019 10:00:00 8,3 1,7 15 8 N 1033,2 25
13.02.2019 09:00:00 5,6 0,8 16 9 N 1033,0 18
13.02.2019 08:00:00 4,5 0,4 21 11 N 1032,3 26
13.02.2019 07:00:00 4,9 0,4 15 8 N 1031,5 26
13.02.2019 06:00:00 5,1 0,7 16 9 N 1031,1 25
13.02.2019 05:00:00 5,2 0,8 21 11 N 1030,8 24
13.02.2019 04:00:00 5,8 0,9 13 7 N 1030,7 30
13.02.2019 03:00:00 6,8 1,1 8 4 NNW 1030,9 25
13.02.2019 02:00:00 6,7 1,4 11 6 N 1031,1 28
13.02.2019 01:00:00 6,8 1,7 4 2 N 1031,5 27
13.02.2019 00:00:00 7,2 3,6 4 2 NW 1031,8 25
12.02.2019 23:00:00 8,3 4,1 4 2 NNW 1032,1 24
12.02.2019 22:00:00 9,1 4,5 8 4 N 1032,0 18
12.02.2019 21:00:00 10,0 5,6 8 4 W 1031,6 30
12.02.2019 20:00:00 11,7 7,2 15 8 WZW 1031,6 27
12.02.2019 19:00:00 12,2 7,1 16 9 WZW 1031,2 40
12.02.2019 18:00:00 13,0 7,1 16 9 WZW 1030,8 30
12.02.2019 17:00:00 13,8 6,6 28 15 WZW 1030,7 30
12.02.2019 16:00:00 14,3 5,5 24 13 WZW 1030,7 30
12.02.2019 15:00:00 13,9 5,3 28 15 ZW 1031,1 30
12.02.2019 14:00:00 14,4 5,3 26 14 ZW 1031,8 30
12.02.2019 13:00:00 14,7 4,5 13 7 ZZW 1032,5 40
12.02.2019 12:00:00 13,3 3,3 15 8 N 1032,9 30
12.02.2019 11:00:00 11,6 3,2 16 9 N 1032,6 28
12.02.2019 10:00:00 8,8 3,2 13 7 N 1032,6 27
12.02.2019 09:00:00 6,6 2,7 21 11 N 1032,4 21
12.02.2019 08:00:00 6,1 2,4 18 10 N 1031,9 27
12.02.2019 07:00:00 5,8 2,3 16 9 N 1031,0 25
12.02.2019 06:00:00 6,6 2,9 18 10 N 1031,0 21
12.02.2019 05:00:00 7,0 4,0 18 10 N 1030,6 22
12.02.2019 04:00:00 7,4 5,0 16 9 N 1030,4 14
12.02.2019 03:00:00 7,9 6,0 13 7 N 1030,6 14
12.02.2019 02:00:00 8,2 6,0 15 8 N 1030,6 18
12.02.2019 01:00:00 8,5 5,9 13 7 N 1030,6 18
12.02.2019 00:00:00 8,9 6,0 11 6 N 1030,4 20
11.02.2019 23:00:00 9,3 5,8 11 6 N 1030,1 21
11.02.2019 22:00:00 12,7 8,0 8 4 ZO 1029,4 15
11.02.2019 21:00:00 11,8 7,7 9 5 O 1028,9 22
11.02.2019 20:00:00 12,5 7,5 8 4 ZZW 1028,1 27
11.02.2019 19:00:00 12,3 6,8 11 6 ZW 1027,2 30
11.02.2019 18:00:00 13,4 6,7 13 7 ZW 1026,9 30
11.02.2019 17:00:00 14,5 7,5 16 9 ZW 1026,2 27
11.02.2019 16:00:00 14,8 7,7 15 8 ZW 1026,0 30
11.02.2019 15:00:00 15,6 6,4 15 8 ZZW 1025,8 21
11.02.2019 14:00:00 16,9 5,1 4 2 W 1026,1 26
11.02.2019 13:00:00 15,2 4,7 9 5 N 1026,7 30

tt = temperatuur
td = dauwpunt
ff = windsnelheid
dd = windrichting
ppp = luchtdruk
vv = zicht

Weerstations in de omgeving